This is the latest recevied weather packets stored in our database for station/object K3RUP-1. If no packets are shown the sender has not sent any weather packets the latest 10 day(s).
| Time | Temp. | Humidity | Pressure | Rain* | Wind** | Luminosity | Snow |
|---|---|---|---|---|---|---|---|
| 1788182835 | 25° C | 88% | 1019.2 hPa | 0 mm | - | 150 W/m² | - |
| 1788182529 | 25.56° C | 88% | 1019.2 hPa | 0 mm | - | 103 W/m² | - |
| 1788182229 | 25.56° C | 88% | 1019.3 hPa | 0 mm | - | 114 W/m² | - |
| 1788181926 | 25.56° C | 88% | 1019.1 hPa | 0 mm | - | 120 W/m² | - |
| 1788181620 | 25.56° C | 88% | 1019 hPa | 0 mm | - | 101 W/m² | - |
| 1788181316 | 25° C | 88% | 1018.9 hPa | 0 mm | - | 109 W/m² | - |
| 1788181014 | 25° C | 88% | 1019 hPa | 0 mm | - | 102 W/m² | - |
| 1788180710 | 25° C | 89% | 1019 hPa | 0 mm | - | 92 W/m² | - |
| 1788180406 | 25° C | 90% | 1019 hPa | 0 mm | - | 88 W/m² | - |
| 1788180103 | 25° C | 90% | 1018.9 hPa | 0 mm | - | 108 W/m² | - |
| 1788179801 | 25° C | 91% | 1019.1 hPa | 0 mm | - | 93 W/m² | - |
| 1788179501 | 25° C | 92% | 1019 hPa | 0 mm | - | 68 W/m² | - |
| 1788179200 | 25° C | 93% | 1018.9 hPa | 0 mm | - | 65 W/m² | - |
| 1788178896 | 25° C | 93% | 1018.7 hPa | 0 mm | - | 69 W/m² | - |
| 1788178596 | 24.44° C | 94% | 1018.7 hPa | 0 mm | - | 63 W/m² | - |
| 1788178292 | 24.44° C | 95% | 1018.7 hPa | 0 mm | - | 59 W/m² | - |
| 1788177987 | 24.44° C | 96% | 1018.7 hPa | 0 mm | - | 44 W/m² | - |
| 1788177682 | 23.89° C | 96% | 1018.6 hPa | 0 mm | - | 49 W/m² | - |
| 1788177378 | 23.89° C | 97% | 1018.9 hPa | 0 mm | - | 47 W/m² | - |
| 1788177073 | 23.89° C | 97% | 1018.6 hPa | 0 mm | - | 36 W/m² | - |
| 1788176772 | 23.89° C | 98% | 1018.6 hPa | 0 mm | - | 27 W/m² | - |
| 1788176467 | 23.89° C | 98% | 1018.5 hPa | 0 mm | - | 22 W/m² | - |
| 1788176166 | 23.89° C | 98% | 1018.4 hPa | 0 mm | - | 28 W/m² | - |
| 1788175862 | 22.78° C | 98% | 1018.4 hPa | 0 mm | - | 31 W/m² | - |
| 1788175561 | 22.78° C | 98% | 1018.2 hPa | 0 mm | - | 34 W/m² | - |
* Rain latest hour (hover to see other rain measurements)
** Current wind speed in m/s (hover to see current wind gust speed)